Location: Bandys
(35.4750°N, 81.0830°W)
Time: 21:41:31
(UTC-04:00)

Daily predictions for brighter satellites

Satellite Brightness Start Highest point End
(mag) Time Altitude Azimuth Time Altitude Azimuth Time Altitude Azimuth
ATLAS 5 CENTAUR R/B 1.7 21:04:34 10° SSW 21:09:05 66° ESE 21:13:57 10° NE
Spot 2 Rocket 3.6 21:04:54 10° SSE 21:09:57 84° WSW 21:15:01 10° NNW
Cosmos-2242 3.9 21:06:34 10° NNW 21:10:43 51° W 21:14:52 10° S
Cosmos 1980 4.0 21:13:05 10° NNW 21:18:46 72° WSW 21:24:23 10° SSE
Cosmos 1727 Rocket 4.1 21:13:26 10° S 21:19:41 70° E 21:26:00 10° NNE
Aureole 2 Rocket 3.9 21:22:34 10° NNW 21:26:22 42° WSW 21:29:54 10° S
Cosmos 2237 Rocket 2.6 21:22:59 10° NNW 21:28:33 64° WSW 21:34:05 10° S
Cosmos 1939 Rocket 2.9 21:25:35 10° SSE 21:29:31 65° ENE 21:33:33 10° N
Cosmos 1340 Rocket 2.8 21:27:12 10° S 21:31:12 86° E 21:35:17 10° N
SJ-11-01 4.3 21:27:58 10° SSE 21:32:41 71° ENE 21:37:25 10° N
CZ-4B DEB 3.1 21:30:53 11° SSE 21:33:30 42° ENE 21:36:20 10° N
Envisat 3.1 21:29:30 10° SSE 21:34:34 83° WSW 21:39:41 10° NNW
Cosmos 2221 3.0 21:30:27 10° N 21:34:39 42° E 21:38:33 11° SSE
Tiangong 1 3.4 21:35:23 10° WNW 21:37:32 19° N 21:39:42 10° NE
Cosmos 2227 Rocket 4.3 21:35:12 10° WSW 21:40:09 31° WNW 21:45:08 10° N
Meteor 1-29 2.9 21:36:49 10° NNE 21:40:14 74° E 21:43:41 10° S
Cosmos 1674 3.0 21:38:37 10° SSE 21:42:14 46° E 21:45:51 10° NNE
Cosmos 2208 Rocket 4.4 21:40:12 10° N 21:45:22 49° ENE 21:49:32 16° SE
Okean 3 Rocket 3.5 21:41:36 10° S 21:46:05 77° E 21:50:34 10° N
ARGOS 4.3 21:42:43 14° ESE 21:46:28 28° ENE 21:51:00 10° N
SAR-Lupe-4 3.5 21:43:39 13° SSE 21:46:47 69° ENE 21:50:22 10° N
CZ-3B R/B 3.2 21:45:36 10° SW 21:48:04 79° SE 21:54:58 10° NE
SPOT 5 4.2 21:47:02 14° ESE 21:49:59 25° ENE 21:54:03 10° NNE
GPS 2-05 Rocket1 3.4 21:47:27 10° SW 21:50:11 29° SSE 21:51:24 22° ESE
Lacrosse 5 3.5 21:47:11 10° NNW 21:51:17 24° NE 21:55:19 10° E
SL-16 R/B 2.2 21:47:55 10° NNW 21:53:37 84° ENE 21:58:21 15° SSE
Cosmos 1908 3.5 21:50:04 10° N 21:53:51 50° E 21:56:19 19° SSE
USA 32 4.4 21:50:30 10° SSW 21:55:42 66° W 22:00:56 10° N
Cosmos 1570 Rocket 4.0 21:51:59 10° NNW 21:57:17 71° ENE 22:01:16 18° SSE
Cosmos 1766 Rocket 3.8 21:54:51 15° SSE 21:58:13 46° E 22:02:22 10° NNE
Atlas Centaur 2 2.2 21:56:03 10° WSW 21:59:12 26° SSW 22:00:27 21° SSE
KORONAS-FOTON 4.0 21:56:38 16° SSE 21:59:26 50° E 22:03:06 10° NNE
OAO 1 Rocket 4.4 21:59:30 10° W 22:04:53 83° S 22:10:04 11° E
Cosmos 1242 Rocket 2.6 22:01:33 10° N 22:05:15 65° E 22:07:16 25° SSE
SAR-Lupe-1 4.1 22:03:35 18° S 22:06:12 76° WSW 22:09:48 10° NNW
USA 245 4.2 22:07:27 24° ESE 22:08:32 29° ENE 22:12:01 10° N
Helios 1B rocket 4.0 22:05:49 10° N 22:09:38 36° WNW 22:13:25 10° SW
Cosmos 1743 Rocket 4.5 22:13:15 26° ESE 22:14:23 30° E 22:18:09 10° NNE
Resurs 01 Rocket 4.4 22:13:04 10° WSW 22:14:53 12° W 22:16:41 10° WNW
Delta 2 Rocket 4.2 22:09:57 10° WSW 22:15:30 56° SSE 22:21:09 10° E
Helios 1A 4.4 22:12:13 10° SSW 22:15:58 34° W 22:19:45 10° NNW
Milstar 3 Cent rocket 4.0 22:09:53 10° W 22:16:40 44° S 22:25:01 21° SE
USA 234 3.2 22:11:51 10° NE 22:18:24 71° SE 22:24:54 10° SW
NOAA 11 4.1 22:16:47 21° SSE 22:20:34 86° ENE 22:26:01 10° NNW
Cosmos 2228 Rocket 4.1 22:16:46 10° NNE 22:20:50 30° ENE 22:22:05 26° ESE
SL-08 RB Rocket 4.1 22:21:54 30° SE 22:23:43 47° ENE 22:28:08 10° N
Cosmos 468 Rocket 4.3 22:18:50 10° N 22:23:50 51° ENE 22:26:04 30° SE
ERS-1 Rocket 3.1 22:21:46 20° S 22:25:17 75° WSW 22:30:20 10° NNW
Terra 3.5 22:24:00 16° E 22:25:17 18° ENE 22:28:30 10° NNE
Cosmos 2227 4.4 22:20:43 10° SSW 22:26:26 77° WNW 22:32:10 10° NNE
STPSAT 2 (USA 217) 4.5 22:22:31 11° SSW 22:26:52 79° ESE 22:31:25 10° NNE
Cosmos 1459 Rocket 4.0 22:21:17 10° N 22:27:34 80° W 22:32:18 18° S
H-2A ROCKET BODY 3.0 22:26:59 10° SSW 22:30:16 31° SSE 22:39:56 10° E
Sakura Rocket 4.4 22:24:37 10° WSW 22:32:32 49° S 22:35:22 30° SE
Cosmos 2100 Rocket 4.3 22:27:08 10° NNW 22:33:25 67° W 22:38:36 16° S
Nimbus 7 Rocket 4.4 22:27:51 10° NNE 22:33:49 62° ESE 22:37:29 24° S
Cosmos 332 Rocket 4.1 22:30:36 10° N 22:35:25 54° ENE 22:37:02 37° SE
MetOp-B 4.2 22:35:14 26° S 22:38:22 76° WSW 22:43:44 10° NNW
Cosmos 2123 Rocket 3.9 22:36:04 22° S 22:40:16 79° E 22:46:29 10° N
Cosmos 2061 Rocket 4.3 22:34:14 10° NNW 22:40:36 70° W 22:45:13 20° S
H-2A R/B 2.3 22:39:05 35° SE 22:41:09 58° ENE 22:46:28 10° N
Cosmos 220 Rocket 3.9 22:39:19 25° SSW 22:41:52 88° ESE 22:46:17 10° NNE
Cosmos 2173 Rocket 4.4 22:37:09 10° NNW 22:43:12 60° W 22:47:55 18° SSW
Cosmos 1626 3.8 22:44:37 22° ENE 22:44:37 22° ENE 22:46:42 10° NE
Meteor 2-10 4.3 22:38:49 10° N 22:44:25 62° E 22:46:32 38° SE
Cosmos 2058 3.7 22:44:53 34° E 22:44:53 34° E 22:48:31 10° NNE
Cosmos 2263 Rocket 2.2 22:46:57 37° SSE 22:48:52 54° ESE 22:54:18 10° NNE
Cosmos 1726 2.1 22:47:54 10° N 22:51:34 72° W 22:52:04 61° SSW
SL-14 R/B 3.4 22:53:30 43° SSW 22:54:39 70° W 22:58:36 10° N
Cosmos 1300 2.5 22:51:27 10° N 22:55:17 89° WNW 22:55:37 74° S
RESURS DK-1 2.2 22:52:10 10° NNW 22:56:21 84° WSW 22:56:54 66° S
EO 1 Delta rocket 3.7 22:55:37 46° S 22:57:02 89° W 23:01:39 10° N
Cosmos 1328 4.4 23:02:47 38° SW 23:04:00 54° W 23:07:58 10° N
Meteor 2-2 Rocket 4.4 22:59:22 10° NNW 23:05:10 73° W 23:07:36 37° S
Cosmos 1725 Rocket 4.0 23:00:28 10° N 23:06:43 80° W 23:09:19 37° S
ERBS 3.4 23:03:41 10° NNW 23:06:28 38° NNE 23:06:28 38° NNE
deb Chang Zheng 4 4.4 23:06:12 10° NNE 23:09:31 37° ENE 23:09:31 37° ENE
Cosmos 1356 4.0 23:11:37 54° N 23:11:37 54° N 23:14:24 10° N
Cosmos 2151 2.8 23:11:00 79° S 23:11:15 88° E 23:15:34 10° N
Tiangong 1 3.3 23:11:30 10° NW 23:13:24 20° N 23:13:24 20° N
Cosmos 1354 Rocket 3.9 23:16:06 63° SE 23:16:38 68° ESE 23:21:50 10° NNE
Cosmos 1500 Rocket 3.9 23:18:03 49° SW 23:18:56 61° W 23:23:22 10° N
Cosmos 1603 4.2 23:15:26 10° NNW 23:20:52 50° WSW 23:22:24 39° SSW
Cosmos 1844 Rocket 4.5 23:24:43 17° ENE 23:24:43 17° ENE 23:26:42 10° NE
Cosmos 1814 Rocket 4.3 23:18:38 10° NNW 23:23:53 60° WSW 23:24:55 50° SSW
DMSP B5D2-2 4.3 23:19:18 10° N 23:24:28 67° WNW 23:26:17 40° SW
Cosmos 371 Rocket 3.5 23:20:32 10° NNW 23:25:16 57° WSW 23:25:49 53° SW
CZ-4C R/B 3.4 23:28:14 26° ENE 23:28:14 26° ENE 23:31:15 10° NE
ARGOS 4.5 23:24:14 23° SW 23:26:32 33° W 23:31:23 10° NW
SPOT 5 4.3 23:26:16 25° SW 23:27:50 31° W 23:32:16 10° NW
Cosmos 1455 3.5 23:25:01 10° N 23:27:33 33° NE 23:27:33 33° NE
CARTOSAT-1 3.5 23:29:27 79° N 23:29:27 79° N 23:33:32 10° NNW
Cosmos 841 Rocket 3.3 23:28:14 10° NNW 23:33:29 83° WSW 23:33:53 75° SSW
Lacrosse 5 2.1 23:29:34 10° NW 23:34:30 56° SW 23:34:30 56° SW
Cosmos 1763 Rocket 3.6 23:30:02 10° NNW 23:35:02 60° WSW 23:35:29 57° SW
Cosmos 1943 3.1 23:30:24 10° NNW 23:36:04 80° WSW 23:36:46 68° S
SL-19 R/B 4.1 23:31:19 10° NNE 23:36:44 87° WNW 23:37:45 62° SSW
Cosmos 1805 Rocket 4.3 23:39:13 44° NE 23:39:13 44° NE 23:42:23 10° NNE
Abrixas rocket 4.4 23:37:03 10° NW 23:38:41 26° NNW 23:38:41 26° NNW
IGS 5A 4.2 23:48:26 50° WNW 23:48:26 50° WNW 23:51:53 10° NNW
H-2A R/B 2.5 23:51:01 58° NW 23:51:01 58° NW 23:54:35 10° NNW
Cosmos 1151 Rocket 4.1 23:46:38 10° NNW 23:50:35 38° W 23:50:35 38° W
SME Rocket 4.1 23:52:50 38° NNE 23:52:50 38° NNE 23:56:02 10° N
